Showing default

CENTAURI-6, 59451

Orbit data source: Space-Track

CENTAURI-6, 59451 is a payload satellite owned by Fleet Space (AU) in LEO that was launched on Sun, 07 Apr 2024 UTC via an FALCON 9 launch vehicle from the Air Force Eastern Test Range (AFETR). Payload-class satellites include a variety of spacecraft equipped with specific instruments for various scientific and technological missions. These include communications satellites like Starlink; space stations such as the ISS; scientific satellites like the Hubble; Earth observation satellites from companies like Planet Labs, Umbra, and HawkEye 360; GPS; miniature CubeSats for education and research; and military/defense satellites.

Loading next visibility...
Identifier
59451, 2024-066K
Orbit
LEO
Country
Flag of AUAU / AUS
Related business
Manufacturer
Terran Orbital
Mission
Operational spacecraft
Bus & Motor
CUBESAT 12U, Unknown motor
Mass
~20 kg wet, ~20 kg dry
Launch date (UTC)
2024-04-07 (1 year ago)
Launch vehicle
FALCON 9
Launch site
Air Force Eastern Test Range (AFETR)
Object type
Payload
Rocket body
Debris
Shape & HBR
Unknown
Radar Cross Section
Medium (>0.1 m² and <1 m²)

Expand to show TLE details & history
Last TLE update: 21 hours ago

TLE from 21 hours ago
0 CENTAURI-6
1 59451U 24066K   25247.45033389  .00007395  00000-0  57765-3 0  9994
2 59451  45.6064 302.7154 0003805 319.0554  41.0042 15.01707198 77101
Epoch: 2025-09-04T10:48Z
TLE epoch observation values (Epoch: 2025-09-04T10:48:28.848Z)
Latitude
-0.00001°
Longitude
156.7825°
Altitude
559.705 km
Speed
7.584 km/s
True Right ascension
20h 10m 51s
True Declination
0° 00' 00"
Sunlit
Object was in full shadow at epoch
Visualization orbit readout
Latitude
Unknown
Longitude
Unknown
Altitude
Unknown
Speed
Unknown
Apparent Right ascension
Unknown
Apparent Declination
Unknown
Sunlit
N/A
Visualization observer readout
Local Sidereal Time
23:38:36
Azimuth
Unknown
Elevation
Unknown
Doppler factor
Unknown
Orbital elements
Apogee altitude
565.763 km
Perigee altitude
560.481 km
Semi-major axis
6,941.259 km
Eccentricity
0.00038
Inclination
45.6064°
RAAN
302.7154°
Arg. of periapsis
319.0554°
True anomaly
41.03282°
Mean anomaly
41.0042°
Eccentric anomaly
41.01851°
Mean motion
3.75306 °/min
Orbital period
95.92 mins
BSTAR
0.00057765
Loading maneuver chart data...
Computing Atmospheric mass density...
Loading historical data...
Loading historical data...
Loading historical data...
Loading historical data...
Loading historical data...
Loading historical data...
Loading historical data...

Documentation

Showing up to 5 results
|